This is the latest recevied weather packets stored in our database for station/object WA7CUG. If no packets are shown the sender has not sent any weather packets the latest 10 day(s).
| Time | Temp. | Humidity | Pressure | Rain* | Wind** | Luminosity | Snow |
|---|---|---|---|---|---|---|---|
| 1777920023 | 25.56° C | 29% | 1009.8 hPa | 0 mm | - | 636 W/m² | - |
| 1777919721 | 25.56° C | 33% | 1009.8 hPa | 0 mm | - | 630 W/m² | - |
| 1777919419 | 25° C | 30% | 1009.9 hPa | 0 mm | - | 624 W/m² | - |
| 1777919115 | 25° C | 31% | 1010 hPa | 0 mm | - | 618 W/m² | - |
| 1777918813 | 25° C | 31% | 1010 hPa | 0 mm | - | 613 W/m² | - |
| 1777918510 | 25° C | 32% | 1010.2 hPa | 0 mm | - | 605 W/m² | - |
| 1777918209 | 24.44° C | 33% | 1009.9 hPa | 0 mm | - | 597 W/m² | - |
| 1777917907 | 24.44° C | 34% | 1010.2 hPa | 0 mm | - | 579 W/m² | - |
| 1777917605 | 23.89° C | 36% | 1010.3 hPa | 0 mm | - | 584 W/m² | - |
| 1777917302 | 23.89° C | 35% | 1010.2 hPa | 0 mm | - | 573 W/m² | - |
| 1777916999 | 23.33° C | 39% | 1010.2 hPa | 0 mm | - | 563 W/m² | - |
| 1777916697 | 23.33° C | 40% | 1010.4 hPa | 0 mm | - | 547 W/m² | - |
| 1777916393 | 22.78° C | 40% | 1010.4 hPa | 0 mm | - | 520 W/m² | - |
| 1777916090 | 22.22° C | 38% | 1010.3 hPa | 0 mm | - | 525 W/m² | - |
| 1777915787 | 22.78° C | 36% | 1010.3 hPa | 0 mm | - | 535 W/m² | - |
| 1777915483 | 22.22° C | 37% | 1010.3 hPa | 0 mm | - | 506 W/m² | - |
| 1777915180 | 21.67° C | 38% | 1010.6 hPa | 0 mm | - | 499 W/m² | - |
| 1777914877 | 21.67° C | 41% | 1010.6 hPa | 0 mm | - | 484 W/m² | - |
| 1777914574 | 21.67° C | 40% | 1010.5 hPa | 0 mm | - | 485 W/m² | - |
| 1777914270 | 21.67° C | 39% | 1010.4 hPa | 0 mm | - | 472 W/m² | - |
| 1777913967 | 21.11° C | 43% | 1010.6 hPa | 0 mm | - | 444 W/m² | - |
| 1777913664 | 21.11° C | 43% | 1010.6 hPa | 0 mm | - | 417 W/m² | - |
| 1777913361 | 20.56° C | 45% | 1010.5 hPa | 0 mm | - | 440 W/m² | - |
| 1777913057 | 20° C | 43% | 1010.7 hPa | 0 mm | - | 442 W/m² | - |
| 1777912753 | 20° C | 44% | 1010.6 hPa | 0 mm | - | 411 W/m² | - |
* Rain latest hour (hover to see other rain measurements)
** Current wind speed in m/s (hover to see current wind gust speed)